Location: Ethel Rock
(53.4667°N, 4.5667°W)
Time: 01:21:09
(UTC+00:00)

ADEOS Rocket - Pass Details

Date: 24 October 2020
Orbit: 859 x 1306 km, 98.7° (Epoch: 26 November)

Event Time Altitude Azimuth Distance (km) Brightness Sun altitude
Rises 06:15:42 0° 228° (SW) 3,440 5.5 -7.6°
Reaches altitude 10° 06:20:17 10° 264° (W) 2,501 4.5 -6.9°
Maximum altitude 06:21:43 11° 280° (W) 2,437 4.4 -6.7°
Drops below altitude 10° 06:23:11 10° 295° (WNW) 2,517 4.5 -6.5°
Sets 06:27:53 0° 331° (NNW) 3,511 5.5 -5.8°
